User: anonymous   Login
Location: Chiroubles
(46.1812°N, 4.6660°E)
Time: 19:26:26
(UTC+00:00)
Language:

Meteor 1-4 Rocket - Orbit

View from above orbital plane
View from above orbital plane
View from above satellite
View from above satellite

Ground track
Ground track

The orbit data is extracted from the following two-line orbital elements,

1  4394U 70037B   20296.18027865  .00001261  00000-0  41353-4 0  9993
2  4394  81.2445  16.4100 0037392 260.6369  99.0639 15.30134925751679
Epoch (UTC): 22 October 2020 04:19:36
Eccentricity: 0.0037392
inclination: 81.2445°
perigee height: 450 km
apogee height: 501 km
right ascension of ascending node: 16.4100°
argument of perigee: 260.6369°
revolutions per day: 15.30134925
mean anomaly at epoch: 99.0639°
orbit number at epoch: 75167

The dashed part of the orbit path shows where the satellite is in the earth's shadow,  

DLR